sat.trackr.live / text

‹ back to catalog

STARLINK-37423

NORAD 68852 · 2026-094P

PAYLOAD ACTIVE UNKNOWN

§ Identity

Operator
Country
US
Launch date
2026-04-26
Launch site
AFWTR
Launch vehicle
Mass (kg)
RCS (m²)

Purposes: comms

External: N2YO · Heavens-Above · Gunter

§ Orbital elements

Epoch: 2026-05-25T00:54:13.208832Z

Period
92.95 min
Inclination
97.2864°
Eccentricity
0.0001731
Mean motion
15.49184929 rev/d
Perigee alt
417.9 km
Apogee alt
420.3 km
Semi-major
6,797.2 km
B*
8.0126e-4
RAAN
159.6989°
Arg perigee
121.3187°
Mean anomaly
238.8234°
Rev number
449

§ Raw data

STARLINK-374231 68852U 26094P   26145.03765288  .00043725  00000+0  80126-3 0  99972 68852  97.2864 159.6989 0001731 121.3187 238.8234 15.49184929  4498

JSON: /api/v1/satellites/68852 · /tle

For live sub-satellite position, see the globe view (requires WebGL).

§ Visibility from observer

Set your observer location to see the next 7 days of passes ≥ 10°. The values pass through the URL so the page stays shareable.

No JS? Fill the form by hand. The geolocation button needs JavaScript.